Wooster, OH

12:44 PM EST on December 05, 2019 (GMT -0500)
Wayne County

Weather History for KBJJ - October, 2019

Change the Weather History Date:

Monday, October 14, 2019

  Actual Average Record
Temperature  
Mean Temperature 47 °F -  
Max Temperature 59 °F 60 °F 79 °F (2014)
Min Temperature 36 °F 37 °F 28 °F (2002)
Degree Days  
Heating Degree Days 18    
Moisture  
Dew Point 37 °F    
Average Humidity 66    
Maximum Humidity 97    
Minimum Humidity 44    
Precipitation  
Precipitation 0.00 in - - ()
Sea Level Pressure  
Sea Level Pressure 30.05 in    
Wind  
Wind Speed 7 mph (West)    
Max Wind Speed 15 mph    
Max Gust Speed 23 mph    
Visibility 10 miles    
Events      
Averages and records for this station are not official NWS values.
T = Trace of Precipitation, MM = Missing Value Source: NWS Daily Summary

Daily Weather History Graph

Daily Weather History Graph

Search for Another Location

Airport or City:

Astronomy

Oct. 14, 2019 Rise Set
Actual Time 7:37 AM EDT 6:48 PM EDT
Civil Twilight 7:09 AM EDT 7:16 PM EDT
Nautical Twilight 6:38 AM EDT 7:48 PM EDT
Astronomical Twilight 6:06 AM EDT 8:20 PM EDT
Moon 7:38 PM EDT (10/14) 8:07 AM EDT (10/14)
Length of Visible Light 12h 06m
Length of Day
11h 11m
Waxing Gibbous, 99% of the Moon is Illuminated
Oct 14
Waxing Gibbous
Oct 21
Last Quarter
Oct 27
New
Nov 4
First Quarter
Nov 12
Full

Hourly Weather History & Observations

Time (EDT) Temp. Windchill Dew Point Humidity Pressure Visibility Wind Dir Wind Speed Gust Speed Precip Events Conditions
12:56 AM 51.1 °F - 37.9 °F 61% 29.91 in 10.0 mi SSW 6.9 mph - N/A   Clear
1:56 AM 50.0 °F - 37.0 °F 61% 29.92 in 10.0 mi SW 5.8 mph - N/A   Partly Cloudy
2:56 AM 48.0 °F - 37.0 °F 66% 29.92 in 10.0 mi SW 6.9 mph - N/A   Clear
5:56 AM 39.0 °F - 36.0 °F 89% 29.98 in 10.0 mi Calm Calm - N/A   Clear
8:56 AM 46.0 °F 43.9 °F 39.9 °F 79% 30.04 in 10.0 mi WNW 4.6 mph - N/A   Clear
9:56 AM 50.0 °F - 37.0 °F 61% 30.06 in 10.0 mi West 10.4 mph - N/A   Clear
10:56 AM 53.1 °F - 35.1 °F 50% 30.06 in 10.0 mi West 10.4 mph - N/A   Clear
11:56 AM 55.0 °F - 35.1 °F 47% 30.06 in 10.0 mi West 15.0 mph 23.0 mph N/A   Partly Cloudy
12:56 PM 55.9 °F - 36.0 °F 47% 30.06 in 10.0 mi West 12.7 mph - N/A   Partly Cloudy
1:56 PM 55.0 °F - 36.0 °F 49% 30.05 in 10.0 mi West 8.1 mph - N/A   Partly Cloudy
2:56 PM 57.9 °F - 37.0 °F 46% 30.05 in 10.0 mi West 8.1 mph 19.6 mph N/A   Mostly Cloudy
3:56 PM 57.9 °F - 36.0 °F 44% 30.05 in 10.0 mi WNW 11.5 mph - N/A   Partly Cloudy
4:56 PM 57.9 °F - 36.0 °F 44% 30.06 in 10.0 mi West 8.1 mph - N/A   Clear
5:56 PM 55.9 °F - 37.0 °F 49% 30.08 in 10.0 mi WNW 6.9 mph - N/A   Clear
6:56 PM 50.0 °F - 37.0 °F 61% 30.09 in 10.0 mi NW 4.6 mph - N/A   Clear
7:56 PM 43.0 °F 40.3 °F 39.0 °F 86% 30.12 in 10.0 mi NNW 4.6 mph - N/A   Clear
8:56 PM 39.9 °F - 37.9 °F 93% 30.12 in 10.0 mi Calm Calm - N/A   Clear
9:56 PM 39.0 °F - 37.0 °F 93% 30.14 in 10.0 mi Calm Calm - N/A   Clear
10:56 PM 37.0 °F - 36.0 °F 96% 30.14 in 10.0 mi Calm Calm - N/A   Clear
11:56 PM 36.0 °F - 35.1 °F 97% 30.14 in 10.0 mi Calm Calm - N/A   Clear